Location: Newark
(39.5667°N, 8.9833°E)
Time: 03:06:01
(UTC+00:00)

Tiros 1 - Visible Passes

Search period start: 19 October 2019 00:00
Search period end: 29 October 2019 00:00
Orbit: 630 x 664 km, 48.4° (Epoch: 18 October)

Date Brightness Start Highest point End Pass type
(mag) Time Alt. Az. Time Alt. Az. Time Alt. Az.
19 Oct 8.8 03:03:54 29° NNE 03:03:54 29° NNE 03:06:49 10° NE visible
19 Oct 8.6 04:41:34 11° NW 04:45:30 29° N 04:49:41 10° ENE visible
20 Oct 8.5 03:28:54 29° N 03:28:54 29° N 03:33:04 10° NE visible
20 Oct 8.4 05:07:35 10° NW 05:12:00 35° NNE 05:16:24 10° E visible
21 Oct 10.1 02:16:14 13° NE 02:16:14 13° NE 02:16:46 10° NE visible
21 Oct 8.6 03:53:54 24° NNW 03:55:24 28° N 03:59:36 10° ENE visible
22 Oct 9.5 02:41:14 19° NE 02:41:14 19° NE 02:43:00 10° NE visible
22 Oct 8.4 04:18:55 17° NW 04:21:56 34° NNE 04:26:18 10° ENE visible
23 Oct 8.9 03:06:17 26° NNE 03:06:17 26° NNE 03:09:30 10° ENE visible
23 Oct 7.9 04:43:57 12° NW 04:48:19 48° NNE 04:53:00 10° E visible
24 Oct 8.4 03:31:21 32° N 03:31:51 33° NNE 03:36:12 10° ENE visible
24 Oct 7.3 05:09:42 10° WNW 05:14:32 85° NNE 05:19:22 10° ESE visible
25 Oct 10.1 02:18:47 13° ENE 02:18:47 13° ENE 02:19:24 10° ENE visible
25 Oct 7.9 03:56:28 31° NNW 03:58:16 46° NNE 04:02:54 10° E visible
26 Oct 9.4 02:43:58 22° NE 02:43:58 22° NE 02:46:06 10° ENE visible
26 Oct 7.2 04:21:39 25° NW 04:24:30 79° NNE 04:29:19 10° ESE visible
27 Oct 8.4 03:09:14 38° NE 03:09:14 38° NE 03:12:49 10° E visible
27 Oct 7.5 04:46:55 16° WNW 04:50:31 52° SW 04:55:11 10° SE visible
28 Oct 7.2 03:34:34 74° NE 03:34:34 74° NE 03:39:16 10° ESE visible
28 Oct 8.5 05:12:29 10° W 05:16:19 24° SW 05:20:09 10° S visible
